Temperature
18 18 19 19 19 19 19 19 19 19 19 19 19 19 19 19 19 19 19 19 19 19 19 19 19 19 19 19 19 19 19 19 18 18 18 18 18 18 18 18 18 18 18
18 18 18 19 19 19 19 19 19 19 19 19 19 19 19 19 19 19 19 19 19 19 19 19 19 19 19 19 19 19 19 19 18 18 18 18 18 18 18 18 18 18 18
18 18 18 19 19 19 19 19 19 19 19 19 19 19 19 19 19 19 19 19 19 19 19 19 19 19 19 19 19 19 19 18 18 18 18 18 18 18 18 18 18 18 18
19 18 18 18 19 19 19 19 18 18 18 18 18 18 18 18 18 19 19 19 19 19 19 19 19 19 19 19 19 19 19 18 18 18 18 18 18 18 18 18 18 18 18
18 18 18 18 18 18 18 18 18 18 18 18 18 18 18 18 18 18 18 18 18 18 18 18 19 19 19 19 19 19 18 18 18 18 18 18 18 18 18 18 18 18 18
18 18 18 18 18 18 18 18 18 18 18 18 18 18 18 18 18 18 18 18 18 18 18 18 18 18 19 19 19 18 18 18 18 18 18 18 18 18 18 18 18 18 18
18 18 18 18 18 18 18 17 17 17 17 17 17 17 17 17 17 17 17 18 18 18 18 18 18 18 18 18 18 18 18 18 18 18 18 18 18 18 18 18 18 18 18
18 18 18 18 18 18 17 17 17 17 17 17 17 17 17 17 17 17 17 17 17 17 17 18 18 18 18 18 18 18 18 18 18 18 18 18 18 18 18 18 18 18 18
18 18 18 18 18 17 17 17 17 16 16 16 16 16 16 16 16 17 17 17 17 17 17 17 17 17 18 18 18 18 18 18 18 18 18 18 18 18 18 18 18 18 18
18 18 18 18 17 17 17 16 16 16 16 16 16 16 16 16 16 16 16 16 16 16 17 17 17 17 17 18 18 18 18 18 18 18 18 18 18 18 18 18 18 18 18
18 18 18 18 17 17 17 16 16 16 16 16 16 16 15 16 16 16 16 16 16 16 16 16 16 17 17 17 17 18 18 18 18 18 18 18 18 18 18 18 18 18 18
18 18 18 18 17 17 17 16 16 16 16 15 15 15 15 15 15 15 15 16 16 16 16 16 16 16 16 17 17 17 18 18 18 18 18 18 18 18 18 18 18 18 18
18 18 18 18 17 17 17 16 16 16 15 15 15 15 15 15 15 15 15 15 15 16 16 16 16 16 16 16 17 17 17 17 17 18 18 18 18 18 18 18 18 18 18
19 18 18 18 17 17 16 16 16 15 15 15 15 15 15 15 15 15 15 15 15 15 15 15 16 16 16 16 16 17 17 17 17 17 18 17 17 18 18 18 18 18 18
19 18 18 18 17 17 16 16 16 15 15 15 15 15 15 15 15 15 15 15 15 15 15 15 15 15 16 16 16 16 17 17 17 17 17 17 17 17 18 18 18 18 18
19 18 18 17 17 17 16 16 15 15 15 15 15 14 14 14 14 14 15 15 15 15 15 15 15 15 15 16 16 16 16 17 17 17 17 17 17 17 17 18 18 18 18
19 18 18 17 17 16 16 15 15 15 15 14 14 14 14 14 14 14 14 14 14 14 15 15 15 15 15 15 16 16 16 16 17 17 17 17 17 17 17 17 18 18 18
19 18 18 17 17 16 16 15 15 14 14 14 14 14 14 14 14 14 14 14 14 14 14 14 15 15 15 15 15 15 16 16 16 17 17 17 17 17 17 17 17 17 18
19 18 18 17 17 16 16 15 15 14 14 14 14 14 14 14 14 14 14 14 14 14 14 14 14 14 15 15 15 15 16 16 16 16 16 17 17 17 17 17 17 17 17
19 18 18 17 17 16 15 15 14 14 14 14 14 13 13 13 13 13 13 13 13 13 14 14 14 14 14 15 15 15 15 16 16 16 16 16 17 17 17 17 17 17 17
19 18 18 17 17 16 15 15 14 14 14 14 13 13 13 13 13 13 13 13 13 13 13 14 14 14 14 14 15 15 15 16 16 16 16 16 16 17 17 17 17 17 17
19 18 18 17 17 16 15 15 14 14 14 13 13 13 13 13 13 13 13 13 13 13 13 13 13 14 14 14 14 14 15 15 16 16 16 16 16 16 17 17 17 17 17
19 18 18 17 17 16 15 15 14 14 14 13 13 13 13 13 13 13 13 13 13 13 13 13 13 13 13 14 14 14 14 15 15 16 16 16 16 16 17 17 17 17 17
19 18 18 17 17 16 15 15 14 14 14 13 13 13 13 13 13 13 13 13 13 13 13 13 13 13 13 13 14 14 14 14 15 15 16 16 16 16 16 16 17 17 17
19 18 18 17 17 16 15 15 14 14 14 13 13 13 13 13 13 13 13 13 13 13 13 13 13 13 13 13 13 14 14 14 14 15 15 15 16 16 16 16 16 16 17
19 18 18 17 17 16 15 15 14 14 14 13 13 13 13 13 13 13 13 13 13 13 13 13 13 13 13 13 13 13 14 14 14 14 15 15 15 15 15 16 16 16 16
Wind_Speed
4 7 13 12 12 11 10 10 9 9 9 9 9 9 9 9 9 9 8 8 8 8 7 7 7 7 7 6 6 6 6 6 6 6 5 5 5 6 7 7 7 6 7
8 10 13 12 11 11 10 9 9 9 9 9 9 8 8 8 8 7 7 7 7 6 6 6 6 5 5 5 4 4 5 5 5 4 4 3 4 5 6 7 7 6 7
10 10 12 12 11 10 9 9 8 8 8 7 7 7 7 6 6 6 6 6 5 5 4 4 4 4 4 3 3 3 4 4 4 4 3 1 2 4 5 6 7 7 7
10 10 11 12 11 9 8 7 6 6 6 5 5 5 5 5 5 5 5 4 4 3 3 3 3 2 2 1 1 2 3 4 4 4 2 1 1 4 5 6 6 7 7
9 10 12 12 11 9 8 7 6 4 4 3 3 3 3 3 3 3 3 3 3 3 2 2 2 2 2 1 1 2 3 3 3 3 2 2 3 5 5 6 6 7 7
8 9 12 12 11 10 8 7 5 4 3 2 2 2 2 3 3 3 3 3 3 2 2 1 2 2 2 2 2 3 4 4 3 2 1 3 4 6 6 6 6 6 7
8 8 11 12 11 10 8 7 5 4 3 2 3 4 4 4 5 5 4 4 4 3 3 3 2 2 3 3 4 4 5 5 2 1 1 3 5 7 7 6 6 6 7
9 8 10 11 11 9 8 7 5 3 3 3 3 4 5 6 6 6 6 6 6 6 5 5 4 4 4 5 5 6 6 5 3 1 1 4 6 8 8 7 7 6 7
8 7 6 8 9 8 8 7 5 4 4 4 4 5 6 7 8 8 9 8 8 8 8 7 7 6 6 6 6 7 8 6 4 3 3 4 6 8 9 8 8 7 7
7 6 5 6 6 5 5 6 5 4 4 5 5 6 7 7 8 9 9 10 10 10 10 9 8 8 7 7 7 8 8 7 4 4 4 6 8 9 10 9 9 8 8
6 5 5 5 5 5 5 5 4 4 4 5 5 6 6 5 6 7 8 9 10 11 11 10 10 9 8 8 8 8 7 4 4 4 5 7 8 10 11 11 10 9 9
6 5 5 5 4 4 4 3 2 3 3 3 4 4 4 4 5 5 6 8 9 10 10 10 10 8 7 6 7 7 5 4 4 5 6 9 10 11 11 11 11 10 10
7 6 5 5 4 3 2 2 1 1 1 2 2 3 3 2 3 3 3 5 5 6 5 6 6 5 5 4 4 4 5 4 4 5 7 9 11 12 12 11 12 11 11
7 6 5 6 4 3 2 1 1 1 1 1 2 3 2 1 1 2 1 3 3 3 2 2 2 4 4 5 4 4 4 4 4 5 7 10 12 12 12 12 12 12 12
7 6 6 6 6 4 3 1 1 1 0 1 3 4 2 1 2 2 2 2 2 2 2 2 2 3 3 3 3 3 4 4 4 5 6 10 12 13 13 13 12 12 12
8 7 6 6 6 5 3 2 1 1 1 2 3 5 4 3 1 2 2 2 2 2 2 1 2 3 3 3 3 3 3 2 3 4 6 9 12 12 13 13 13 12 13
10 8 7 7 6 5 4 2 1 1 2 2 2 4 5 3 3 2 2 3 3 3 2 1 1 1 1 2 3 3 3 2 3 4 6 6 8 11 13 13 13 13 13
10 8 7 7 7 5 3 2 1 1 1 1 1 3 4 4 4 2 2 3 3 3 2 1 1 1 1 2 2 3 2 2 3 3 4 5 5 7 10 12 12 12 13
10 9 7 7 6 5 4 2 2 1 1 0 1 1 2 3 3 1 2 2 2 2 2 2 1 0 1 2 2 2 2 2 3 3 3 3 5 6 7 9 11 12 13
10 9 8 7 6 5 3 2 2 2 1 1 0 0 1 2 2 1 2 3 2 1 2 2 1 1 1 1 2 2 2 2 2 2 2 2 3 5 6 7 7 9 12
8 8 7 7 5 4 2 2 1 1 1 1 2 1 1 1 2 1 2 2 1 1 1 2 1 1 1 1 1 2 3 2 1 1 2 2 2 3 4 6 6 6 7
9 8 8 8 6 5 3 2 2 2 1 2 2 2 1 1 2 1 1 1 1 1 2 2 1 0 1 1 2 2 2 4 2 1 1 2 3 2 2 4 5 6 6
10 10 9 8 7 6 4 2 2 2 2 2 2 2 2 2 2 2 1 1 1 1 1 1 0 1 0 1 1 3 2 1 2 3 1 1 2 2 2 2 4 5 7
10 9 9 8 7 6 5 4 3 2 1 2 2 2 3 3 2 2 1 1 1 1 1 1 1 2 2 0 1 0 1 2 1 2 3 1 1 2 2 2 2 3 6
9 9 8 8 7 6 5 5 4 2 2 2 2 2 2 3 3 2 1 1 1 1 1 1 0 2 2 2 1 0 1 1 1 2 1 2 2 1 1 1 2 2 4
8 8 8 8 7 6 5 5 5 4 3 1 1 1 2 2 3 3 2 2 1 1 1 0 1 2 2 2 2 2 2 1 1 2 1 1 1 1 1 0 0 1 2
Wind_Direction
152 158 145 137 133 129 126 123 121 120 118 118 115 112 109 107 106 103 100 98 97 93 89 86 82 80 77 72 66 61 59 60 55 51 53 58 62 62 64 67 66 62 61
155 151 144 138 133 129 128 127 125 122 120 119 117 115 114 114 114 111 108 105 103 99 96 93 90 89 82 73 63 54 47 46 42 33 34 53 69 73 72 74 73 72 64
141 143 141 138 133 129 128 128 126 123 121 120 120 119 118 120 121 121 118 115 112 109 107 103 101 100 94 76 58 45 33 26 22 18 28 66 102 93 86 81 78 75 70
138 139 140 138 134 131 131 131 130 128 128 129 128 127 128 131 130 130 130 128 124 119 119 118 119 120 113 92 45 16 6 5 4 11 34 59 146 119 104 94 85 82 76
138 142 144 141 138 135 133 132 132 133 139 146 151 154 158 161 157 151 151 149 146 141 141 138 144 155 171 205 265 302 325 338 353 19 28 104 136 135 120 107 96 89 84
141 148 149 144 144 143 142 141 143 147 158 176 199 208 209 209 206 209 201 191 194 190 181 185 196 202 208 226 255 276 295 317 335 10 54 154 165 151 132 121 111 101 94
149 156 155 151 153 153 151 151 158 170 185 205 230 239 242 245 241 239 241 231 227 230 231 238 238 243 241 237 250 264 276 295 299 309 222 190 183 159 143 135 124 114 107
154 161 161 161 162 163 164 166 172 184 202 223 249 262 260 260 265 263 257 247 242 242 244 248 246 249 252 251 252 256 262 274 289 311 257 206 190 167 155 147 137 128 117
153 157 167 172 171 171 174 180 189 201 214 234 257 271 270 268 267 268 265 257 250 245 247 251 253 252 253 255 256 257 258 259 266 267 248 221 205 176 164 156 149 143 133
153 158 171 174 172 175 188 197 206 223 238 252 265 273 273 274 274 273 269 262 256 251 248 250 252 254 258 259 258 258 260 259 250 248 250 231 213 186 173 166 159 154 147
155 163 170 169 175 185 201 215 220 239 257 273 285 287 283 283 281 275 273 268 261 258 254 251 252 257 260 263 263 261 261 249 236 237 244 231 213 194 182 174 168 162 159
163 171 167 162 167 180 200 196 228 252 273 285 291 300 307 288 283 283 281 279 271 263 260 257 254 258 258 260 264 263 254 241 235 239 242 231 215 197 188 181 175 170 168
168 158 152 153 152 153 159 162 186 253 312 315 311 316 322 310 302 305 306 298 294 280 270 267 261 256 244 242 248 251 247 235 232 242 243 230 214 199 190 185 183 178 176
148 143 143 142 134 127 113 109 122 85 16 350 335 342 347 334 315 304 295 298 299 289 267 254 250 250 243 241 239 242 244 232 228 237 238 230 215 203 193 189 188 185 183
144 140 132 129 123 114 96 75 92 91 29 5 10 3 3 7 341 335 322 327 311 302 282 269 258 252 246 243 243 243 240 230 230 227 235 226 216 207 199 193 191 189 188
148 143 137 125 123 111 103 95 95 86 70 49 34 28 32 35 10 5 355 338 321 311 284 258 255 250 243 233 247 254 243 234 237 222 231 229 217 211 210 202 197 194 193
153 149 142 130 118 110 101 86 79 64 77 61 38 36 40 39 30 19 1 338 318 327 323 316 303 272 259 250 251 253 250 239 229 228 223 220 218 218 217 210 204 201 199
150 148 143 132 125 120 111 98 89 85 80 74 47 37 34 30 27 22 356 327 323 343 343 335 335 333 298 277 262 255 246 245 231 229 218 210 210 218 222 216 211 209 205
153 148 141 137 136 130 121 102 74 66 53 53 53 38 23 20 23 25 330 314 339 345 343 326 350 315 279 288 270 253 243 241 242 231 212 205 207 214 219 221 218 215 211
153 148 144 141 141 130 107 76 43 31 359 346 320 316 352 356 9 6 311 317 337 353 338 328 313 326 255 264 292 305 273 252 231 208 206 201 206 208 208 212 214 218 214
150 147 148 147 153 134 112 111 95 314 300 304 289 297 330 334 342 352 322 327 341 349 310 312 317 331 319 351 40 352 330 292 250 217 196 192 211 206 198 199 200 205 213
161 158 155 156 157 153 155 172 188 201 244 258 290 322 331 324 332 344 338 321 318 327 341 345 38 49 343 52 100 69 357 351 330 269 197 198 210 202 210 206 201 203 207
167 168 163 163 160 161 153 124 74 49 22 359 331 316 306 295 304 320 327 306 299 269 280 295 164 144 157 328 98 129 132 239 307 326 284 221 201 196 218 208 205 210 210
176 170 159 160 161 162 151 140 139 151 203 244 252 271 293 293 288 301 320 312 304 287 272 273 184 163 141 133 325 70 152 165 134 340 340 326 251 195 211 212 200 199 203
171 165 160 155 159 164 160 154 151 165 211 252 272 296 307 306 302 302 315 325 315 290 269 278 174 146 148 155 154 142 74 63 107 139 336 335 350 315 227 221 193 177 188
163 157 154 156 166 171 162 159 164 174 188 214 289 306 308 304 305 307 324 326 303 285 259 248 184 158 162 158 155 146 143 139 164 145 167 278 314 308 340 21 117 164 169
Height
1514 1515 1516 1517 1518 1518 1519 1519 1519 1520 1520 1521 1521 1522 1522 1523 1523 1523 1523 1523 1523 1524 1524 1524 1524 1524 1523 1523 1524 1523 1523 1523 1523 1522 1522 1521 1521 1520 1520 1519 1518 1517 1516
1514 1515 1516 1517 1518 1518 1519 1519 1520 1520 1520 1521 1521 1521 1522 1522 1522 1522 1523 1523 1523 1523 1523 1523 1523 1523 1523 1523 1523 1523 1523 1523 1523 1523 1522 1522 1521 1521 1520 1519 1518 1517 1516
1514 1515 1516 1517 1518 1518 1519 1519 1519 1520 1520 1520 1520 1521 1521 1522 1522 1522 1522 1522 1523 1523 1523 1523 1523 1523 1523 1523 1523 1523 1523 1523 1523 1523 1522 1522 1522 1521 1520 1520 1519 1518 1516
1515 1516 1517 1517 1518 1518 1518 1519 1519 1519 1519 1519 1520 1520 1520 1521 1521 1521 1521 1521 1522 1522 1522 1522 1522 1522 1523 1523 1523 1523 1523 1523 1523 1523 1522 1522 1522 1521 1521 1520 1519 1518 1517
1515 1516 1517 1517 1517 1518 1518 1518 1518 1518 1518 1518 1518 1518 1519 1519 1520 1520 1520 1520 1521 1521 1521 1521 1521 1522 1522 1522 1522 1523 1523 1523 1523 1522 1522 1522 1522 1521 1521 1521 1520 1519 1518
1516 1516 1517 1517 1517 1517 1517 1517 1517 1517 1517 1517 1517 1517 1517 1517 1518 1518 1518 1518 1519 1519 1519 1520 1520 1521 1521 1521 1521 1522 1522 1522 1523 1522 1522 1522 1522 1522 1521 1521 1521 1520 1519
1516 1516 1517 1517 1517 1516 1516 1516 1516 1515 1515 1515 1515 1515 1515 1515 1516 1516 1516 1516 1517 1517 1518 1518 1519 1519 1520 1520 1520 1521 1521 1522 1522 1522 1522 1522 1522 1522 1522 1522 1521 1521 1520
1516 1516 1517 1517 1517 1516 1516 1516 1515 1514 1514 1513 1513 1513 1513 1513 1513 1513 1513 1514 1514 1515 1515 1516 1517 1517 1518 1518 1519 1520 1520 1521 1521 1521 1521 1521 1521 1522 1522 1522 1522 1521 1521
1516 1516 1516 1516 1516 1516 1516 1515 1515 1514 1513 1512 1512 1511 1511 1511 1511 1511 1511 1511 1512 1512 1513 1514 1514 1515 1516 1516 1517 1518 1519 1520 1520 1520 1521 1521 1521 1521 1521 1522 1522 1522 1522
1516 1516 1516 1516 1516 1516 1515 1515 1514 1513 1512 1511 1511 1510 1510 1509 1509 1509 1509 1509 1510 1510 1511 1511 1512 1513 1513 1514 1515 1516 1517 1518 1518 1519 1520 1520 1520 1521 1521 1522 1522 1522 1523
1516 1516 1516 1516 1515 1515 1515 1514 1513 1512 1511 1511 1510 1509 1508 1508 1507 1507 1507 1507 1507 1507 1508 1509 1509 1510 1510 1512 1513 1514 1515 1516 1517 1517 1518 1519 1520 1520 1521 1522 1522 1522 1523
1515 1515 1515 1515 1515 1514 1514 1513 1512 1512 1511 1510 1509 1508 1507 1506 1506 1506 1505 1505 1505 1505 1505 1506 1506 1507 1508 1509 1510 1511 1513 1514 1515 1516 1517 1518 1519 1519 1520 1521 1522 1522 1523
1514 1515 1515 1515 1514 1513 1513 1512 1511 1511 1510 1509 1508 1507 1506 1505 1505 1504 1504 1503 1503 1503 1503 1503 1504 1504 1505 1506 1508 1509 1510 1512 1512 1514 1515 1516 1517 1518 1519 1520 1521 1522 1523
1514 1514 1514 1514 1513 1513 1512 1511 1510 1510 1509 1508 1507 1506 1505 1504 1503 1502 1502 1502 1501 1501 1501 1501 1502 1502 1503 1504 1505 1506 1507 1509 1510 1511 1513 1514 1515 1517 1518 1519 1520 1521 1522
1513 1513 1513 1513 1512 1512 1511 1510 1509 1509 1508 1507 1505 1504 1503 1502 1501 1501 1500 1500 1499 1499 1499 1499 1499 1500 1500 1501 1502 1503 1505 1506 1508 1509 1511 1512 1514 1515 1516 1517 1518 1520 1521
1511 1512 1512 1512 1511 1511 1510 1509 1508 1507 1506 1505 1504 1503 1502 1501 1500 1499 1498 1498 1497 1497 1497 1497 1497 1498 1498 1499 1500 1501 1502 1504 1505 1507 1509 1510 1512 1513 1514 1516 1517 1518 1520
1510 1510 1510 1510 1510 1509 1508 1507 1507 1506 1505 1504 1503 1501 1500 1499 1498 1497 1496 1496 1495 1495 1495 1495 1495 1495 1496 1496 1497 1498 1500 1501 1502 1504 1506 1508 1510 1511 1512 1514 1515 1517 1519
1508 1509 1509 1509 1509 1508 1507 1506 1505 1504 1503 1502 1501 1500 1499 1497 1496 1495 1494 1494 1493 1492 1492 1492 1493 1493 1493 1494 1494 1495 1497 1498 1500 1502 1504 1506 1507 1509 1511 1512 1514 1516 1517
1507 1507 1507 1508 1507 1506 1506 1505 1504 1503 1502 1501 1500 1498 1497 1496 1495 1493 1492 1492 1491 1490 1490 1490 1490 1491 1491 1491 1492 1493 1494 1495 1497 1499 1501 1503 1505 1507 1509 1510 1512 1514 1515
1505 1506 1506 1506 1506 1505 1504 1504 1503 1502 1501 1500 1498 1497 1495 1494 1493 1492 1490 1490 1489 1489 1488 1488 1488 1488 1489 1489 1490 1491 1492 1493 1495 1497 1499 1501 1503 1505 1506 1508 1510 1512 1514
1504 1504 1505 1504 1504 1504 1503 1502 1501 1501 1499 1498 1497 1496 1494 1493 1491 1490 1489 1488 1487 1487 1486 1486 1486 1486 1487 1487 1488 1489 1490 1491 1493 1494 1496 1498 1500 1502 1504 1506 1508 1510 1512
1502 1503 1503 1503 1503 1502 1502 1501 1501 1500 1498 1497 1496 1495 1493 1492 1490 1489 1488 1487 1486 1485 1485 1484 1484 1485 1485 1486 1487 1487 1488 1490 1491 1492 1494 1496 1498 1500 1501 1504 1506 1508 1510
1500 1501 1501 1501 1501 1501 1501 1500 1500 1499 1498 1497 1495 1494 1492 1491 1489 1488 1487 1486 1485 1484 1483 1483 1483 1483 1484 1485 1486 1487 1488 1488 1489 1491 1492 1494 1496 1498 1499 1501 1503 1505 1508
1498 1499 1499 1500 1500 1500 1499 1499 1498 1498 1497 1496 1494 1493 1492 1490 1489 1487 1486 1485 1484 1483 1482 1482 1482 1482 1483 1483 1484 1486 1487 1488 1489 1490 1491 1492 1494 1496 1497 1499 1501 1503 1505
1496 1497 1498 1498 1498 1498 1498 1498 1497 1497 1496 1495 1494 1492 1491 1489 1488 1487 1485 1484 1483 1482 1481 1481 1481 1481 1482 1482 1483 1484 1486 1487 1488 1489 1489 1491 1492 1494 1495 1497 1499 1501 1503
1495 1495 1496 1496 1497 1497 1497 1496 1496 1496 1495 1494 1493 1491 1490 1489 1487 1486 1485 1483 1482 1481 1480 1480 1480 1480 1481 1482 1482 1483 1484 1486 1487 1488 1489 1489 1491 1492 1494 1495 1497 1499 1501